Palmdale FAWN current weather conditions

sailwx.info

Wind from 042 at 0 knots

Air temperature 12.7° C
Dewpoint 12.4° C

Last reported at 2019-Dec-09 12:00 UTC.
Time now 2019-Dec-09 12:26 UTC

Location: N 26°56' W 081°24'.
View on Google Maps.

See reports from other nearby stations

  
Tides and Currents Weather Stations Pressure Air Temp Water Temp Dewpoint Dewpoint Depression Visibility Wind Speed Wind Dir Waves Ship Positions
date/time (UTC)wind fromknots sea level pressurealtimeterstation pressurevisibilityair tempwater tempwave heightnotes
2019-Dec-09 12:00 042 0 12.7
2019-Dec-09 11:45 049 0 12.6
2019-Dec-09 11:30 032 1 12.5
2019-Dec-09 11:15 044 0 12.8
2019-Dec-09 11:00 043 0 12.7
2019-Dec-09 10:45 020 0 12.6
2019-Dec-09 10:30 043 0 12.9
2019-Dec-09 10:15 042 0 13.0
2019-Dec-09 10:00 335 0 13.3
2019-Dec-09 09:45 055 0 13.3
2019-Dec-09 09:30 102 0 13.7
2019-Dec-09 09:15 096 1 13.8
2019-Dec-09 09:00 068 1 14.0
2019-Dec-09 08:45 047 1 14.2
2019-Dec-09 08:30 032 1 14.4
2019-Dec-09 08:15 025 1 14.2
2019-Dec-09 08:00 038 0 14.6
2019-Dec-09 07:45 041 1 14.9
2019-Dec-09 07:30 044 0 14.7
2019-Dec-09 07:15 055 0 14.5
2019-Dec-09 07:00 070 0 14.6
2019-Dec-09 06:45 066 0 14.4
2019-Dec-09 06:30 066 0 14.6
2019-Dec-09 06:15 081 0 14.6
2019-Dec-09 06:00 082 0 14.9
2019-Dec-09 05:45 081 0 14.9
2019-Dec-09 05:30 089 0 15.1
2019-Dec-09 05:15 088 0 15.4
2019-Dec-09 05:00 054 0 15.6
2019-Dec-09 04:45 038 0 15.7
2019-Dec-09 04:30 026 0 15.6
2019-Dec-09 04:15 070 0 15.9
2019-Dec-09 04:00 081 0 16.4
2019-Dec-09 03:45 082 0 16.8
2019-Dec-09 03:30 080 1 17.0
2019-Dec-09 03:15 074 0 17.3
2019-Dec-09 03:00 095 1 17.8
2019-Dec-09 02:45 096 1 18.1
2019-Dec-09 02:30 096 1 18.4
2019-Dec-09 02:15 104 1 18.6
2019-Dec-09 02:00 109 1 18.7
2019-Dec-09 01:45 113 1 18.9
2019-Dec-09 01:30 126 1 19.3
2019-Dec-09 01:15 122 2 20.0
2019-Dec-09 01:00 101 2 20.5
2019-Dec-09 00:45 101 2 20.8
2019-Dec-09 00:30 102 3 21.1
2019-Dec-09 00:15 098 3 21.1
2019-Dec-09 00:00 090 3 21.2
2019-Dec-08 23:45 088 2 21.4
2019-Dec-08 23:30 090 2 21.6
2019-Dec-08 23:15 093 2 22.0
2019-Dec-08 23:00 086 2 22.3
2019-Dec-08 22:45 089 2 22.9
2019-Dec-08 22:30 090 2 23.8
2019-Dec-08 22:15 088 3 24.6
2019-Dec-08 22:00 096 4 25.2
2019-Dec-08 21:45 098 4 25.7
2019-Dec-08 21:30 097 4 25.9
2019-Dec-08 21:15 091 4 26.5
2019-Dec-08 21:00 097 4 27.1
2019-Dec-08 20:45 093 4 27.1
2019-Dec-08 20:30 098 4 27.1
2019-Dec-08 20:15 104 5 27.2
2019-Dec-08 20:00 101 4 27.3
2019-Dec-08 19:45 114 4 26.8
2019-Dec-08 19:30 091 4 26.5
2019-Dec-08 19:15 092 4 26.2
2019-Dec-08 19:00 105 3 25.6
2019-Dec-08 18:45 094 3 26.0
2019-Dec-08 18:30 105 5 27.1
2019-Dec-08 18:15 109 5 27.1
2019-Dec-08 18:00 132 5 27.1
2019-Dec-08 17:45 112 6 27.0
2019-Dec-08 17:30 124 4 26.3
2019-Dec-08 17:15 122 5 26.2
2019-Dec-08 17:00 125 6 26.8
2019-Dec-08 16:45 109 5 25.9
2019-Dec-08 16:30 107 5 25.8
2019-Dec-08 16:15 106 5 26.2
2019-Dec-08 16:00 104 4 25.9
2019-Dec-08 15:45 114 4 25.5
2019-Dec-08 15:30 120 4 24.9
2019-Dec-08 15:15 100 4 24.4
2019-Dec-08 15:00 104 3 23.8
2019-Dec-08 14:45 103 3 22.6
2019-Dec-08 14:30 087 3 21.3
2019-Dec-08 14:15 089 2 20.1
2019-Dec-08 14:00 074 2 19.4
2019-Dec-08 13:45 066 1 17.7
2019-Dec-08 13:30 053 1 15.8
2019-Dec-08 13:15 057 1 15.1
2019-Dec-08 13:00 054 2 14.6
2019-Dec-08 12:45 044 2 14.1
2019-Dec-08 12:30 034 2 13.5
2019-Dec-08 12:15 031 1 13.1
2019-Dec-08 12:00 036 1 13.3
2019-Dec-08 11:45 036 1 13.7
2019-Dec-08 11:30 041 1 14.1
2019-Dec-08 11:15 044 1 14.5
2019-Dec-08 11:00 040 2 14.7
2019-Dec-08 10:45 035 3 14.7
2019-Dec-08 10:30 024 3 14.5
2019-Dec-08 10:15 027 2 14.5
2019-Dec-08 10:00 028 3 14.6
2019-Dec-08 09:45 024 3 14.7
2019-Dec-08 09:30 028 3 14.8
2019-Dec-08 09:15 028 4 14.7
2019-Dec-08 09:00 023 3 14.5
2019-Dec-08 08:45 019 2 14.3
2019-Dec-08 08:30 020 2 14.1
2019-Dec-08 08:15 013 1 13.4
2019-Dec-08 08:00 360 1 13.7
2019-Dec-08 07:45 018 2 13.2
2019-Dec-08 07:30 018 1 12.5
2019-Dec-08 07:15 013 0 12.7
2019-Dec-08 07:00 022 1 12.7
2019-Dec-08 06:45 029 1 12.5
2019-Dec-08 06:30 026 1 12.7
2019-Dec-08 06:15 027 0 13.0
2019-Dec-08 06:00 315 0 13.2
2019-Dec-08 05:45 290 0 13.6
2019-Dec-08 05:30 251 0 13.9
2019-Dec-08 05:15 033 0 14.7
2019-Dec-08 05:00 003 0 15.7
2019-Dec-08 04:45 025 1 16.6
2019-Dec-08 04:30 035 1 17.2
2019-Dec-08 04:15 047 1 17.5
2019-Dec-08 04:00 050 1 17.8
2019-Dec-08 03:45 048 1 17.7
2019-Dec-08 03:30 059 1 18.0
2019-Dec-08 03:15 055 1 18.1
2019-Dec-08 03:00 062 1 18.2
2019-Dec-08 02:45 056 2 18.4
2019-Dec-08 02:30 057 2 18.6
2019-Dec-08 02:15 062 2 18.6
2019-Dec-08 02:00 065 2 18.8
2019-Dec-08 01:45 059 2 19.0
2019-Dec-08 01:30 045 2 19.4
2019-Dec-08 01:15 037 2 19.7
2019-Dec-08 01:00 043 1 19.6
2019-Dec-08 00:45 036 2 20.1
2019-Dec-08 00:30 032 2 20.1
2019-Dec-08 00:15 029 2 20.0
2019-Dec-08 00:00 024 2 19.7
2019-Dec-07 23:45 018 1 19.6
2019-Dec-07 23:30 006 1 20.4
2019-Dec-07 23:15 010 1 21.0
2019-Dec-07 23:00 029 1 21.6
2019-Dec-07 22:45 044 1 21.7
2019-Dec-07 22:30 031 1 22.4
2019-Dec-07 22:15 028 1 23.0
2019-Dec-07 22:00 040 1 23.6
2019-Dec-07 21:45 028 1 24.1
2019-Dec-07 21:30 027 1 24.5
2019-Dec-07 21:15 009 2 24.9
2019-Dec-07 21:00 354 2 25.1
2019-Dec-07 20:45 005 2 25.4
2019-Dec-07 20:30 011 2 25.5
2019-Dec-07 20:15 220 1 25.7
2019-Dec-07 20:00 247 1 26.0
2019-Dec-07 19:45 007 2 25.3
2019-Dec-07 19:30 070 1 25.3
2019-Dec-07 19:15 052 1 25.3
2019-Dec-07 19:00 311 2 25.4
2019-Dec-07 18:45 342 1 24.9
2019-Dec-07 18:30 012 1 24.5
2019-Dec-07 18:15 054 1 24.4
2019-Dec-07 18:00 276 2 24.1
2019-Dec-07 17:45 003 2 24.2
2019-Dec-07 17:30 346 1 24.4
2019-Dec-07 17:15 082 2 24.3
2019-Dec-07 17:00 047 1 24.3
2019-Dec-07 16:45 038 2 24.2
2019-Dec-07 16:30 059 2 23.7
2019-Dec-07 16:15 051 2 23.8
2019-Dec-07 16:00 013 3 23.0
2019-Dec-07 15:45 022 3 22.6
2019-Dec-07 15:30 035 3 22.1
2019-Dec-07 15:15 031 3 21.4
2019-Dec-07 15:00 011 3 20.5
2019-Dec-07 14:45 027 2 19.7
2019-Dec-07 14:30 037 3 18.8
2019-Dec-07 14:15 032 3 18.0
2019-Dec-07 14:00 032 2 16.9
2019-Dec-07 13:45 032 3 15.9
2019-Dec-07 13:30 035 4 15.1
2019-Dec-07 13:15 046 2 14.3
2019-Dec-07 13:00 049 2 13.2
2019-Dec-07 12:45 041 2 11.8
2019-Dec-07 12:30 031 2 10.3
2019-Dec-07 12:15 028 2 8.9
2019-Dec-07 12:00 033 1 8.0